Location: Goettingen
(51.5300°N, 9.9433°E)
Time: 23:42:29
(UTC+02:00)

ISS - Visible Passes

Search period start: 23 September 2017 00:00
Search period end: 03 October 2017 00:00
Orbit: 401 x 407 km, 51.6° (Epoch: 24 September)

Date Brightness Start Highest point End Pass type
(mag) Time Alt. Az. Time Alt. Az. Time Alt. Az.
26 Sep -1.9 20:28:08 10° S 20:29:53 16° SSE 20:29:53 16° SSE visible
27 Sep -2.4 21:10:53 10° SW 21:12:44 27° SSW 21:12:44 27° SSW visible
28 Sep -2.7 20:18:55 10° SSW 20:21:46 28° SSE 20:22:45 23° ESE visible
28 Sep -1.1 21:54:41 10° WSW 21:55:24 15° WSW 21:55:24 15° WSW visible
29 Sep -3.6 21:02:23 10° WSW 21:05:17 58° SSW 21:05:17 58° SSW visible
30 Sep -3.4 20:10:10 10° SW 20:13:18 46° SSE 20:15:03 22° E visible
30 Sep -1.4 21:46:24 10° W 21:47:42 22° W 21:47:42 22° W visible
01 Oct -4.0 20:54:00 10° WSW 20:57:18 84° SSE 20:57:23 82° SE visible
02 Oct -3.8 20:01:38 10° WSW 20:04:54 69° SSE 20:07:01 20° E visible
02 Oct -1.7 21:38:05 10° W 21:39:39 26° W 21:39:39 26° W visible
